DateTimeUTC,F1_A11,F1_S11,BsB_S11,BsG_S11,BsR_S11,BbsB_S11,BbsG_S11,BbsR_S11,BaB_A11,BaG_A11,BaR_A11,Tu_S11,T_S11,Uu_S11,U_S11,P_S11,T1_A11
2021-10-05T03:00:00Z,00140200,21000000,,,,,,,0001.48,0001.35,0001.19,16.0,23.2,,00.0,0667.7,30.6
2021-10-05T03:01:00Z,00140200,21000000,,,,,,,0001.58,0001.67,0001.17,16.0,23.2,,00.0,0667.7,30.5
2021-10-05T03:02:00Z,00140200,21000000,,,,,,,0001.09,0001.09,0000.68,16.0,23.2,,00.0,0667.7,30.6
2021-10-05T03:03:00Z,00140200,61000000,,,,,,,0159.97,0149.03,0122.96,16.0,23.2,,00.0,0667.7,30.6
2021-10-05T03:04:00Z,00140200,41000000,0018.49,0014.27,0008.66,0003.05,0003.30,0002.63,0187.65,0176.52,0146.28,16.3,23.0,,00.0,0668.6,30.6
2021-10-05T03:05:00Z,00140200,01000000,0016.77,0012.33,0007.66,0003.06,0002.85,0002.13,0165.00,0154.73,0128.09,16.4,23.0,,00.0,0668.7,30.6
2021-10-05T03:06:00Z,00140200,01000000,0014.02,0009.98,0006.27,0003.01,0002.10,0001.96,0134.83,0126.77,0105.09,16.5,23.0,,00.0,0668.7,30.6
2021-10-05T03:07:00Z,00140200,01000000,0012.89,0010.14,0006.49,0002.80,0002.62,0002.06,0132.19,0124.30,0103.06,16.5,23.0,,00.0,0668.7,30.6
2021-10-05T03:08:00Z,00140200,01000000,0017.26,0012.54,0008.34,0003.19,0003.02,0002.45,0162.74,0152.44,0126.53,16.6,23.0,,00.0,0668.7,30.6
2021-10-05T03:09:00Z,00140200,01000000,0023.66,0017.29,0011.32,0004.96,0004.10,0003.27,0224.58,0210.94,0175.32,16.6,23.1,,00.0,0668.7,30.6
2021-10-05T03:10:00Z,00140200,01000000,0013.62,0009.91,0006.49,0002.56,0002.52,0001.82,0141.46,0133.52,0111.45,16.6,23.1,,00.0,0668.7,30.6
2021-10-05T03:11:00Z,00540200,01000000,0003.76,0003.20,0002.07,0000.65,0000.69,0000.58,0041.25,0039.08,0032.55,16.6,23.1,,00.0,0668.7,30.6
2021-10-05T03:12:00Z,00540200,01000000,0001.90,0001.65,0001.39,0000.96,0000.66,0000.62,0022.58,0020.90,0017.55,16.6,23.1,,00.0,0668.6,30.6
2021-10-05T03:13:00Z,00540200,01000000,0002.57,0001.40,0001.10,0000.31,0000.19,0000.29,0024.82,0023.47,0019.31,16.5,23.1,,00.0,0668.6,30.6
2021-10-05T03:14:00Z,00540200,01000000,0004.58,0002.96,0001.88,0001.21,0000.47,0000.61,0039.67,0037.06,0030.71,16.4,23.0,,00.0,0668.6,30.6
2021-10-05T03:15:00Z,00540200,01000000,0008.29,0005.92,0003.74,0001.82,0001.63,0001.00,0071.09,0066.63,0054.41,16.4,22.9,,00.0,0668.6,30.6
2021-10-05T03:16:00Z,00540200,01000000,0015.95,0011.48,0007.18,0003.42,0002.78,0002.29,0148.63,0139.43,0115.10,16.4,22.9,,00.0,0668.6,30.6
2021-10-05T03:17:00Z,00540200,01000000,0017.96,0013.32,0008.79,0004.12,0003.43,0002.23,0178.56,0167.51,0139.26,16.4,22.9,,00.0,0668.6,30.6
2021-10-05T03:18:00Z,00540200,01000000,0018.14,0013.73,0008.85,0003.44,0003.49,0002.71,0175.23,0164.82,0136.63,16.5,23.0,,00.0,0668.6,30.6
2021-10-05T03:19:00Z,00540200,01000000,0016.19,0012.40,0008.23,0004.13,0003.02,0002.29,0161.08,0151.34,0126.14,16.5,23.0,,00.0,0668.7,30.6
2021-10-05T03:20:00Z,00540200,01000000,0012.58,0009.46,0006.17,0002.86,0002.52,0001.84,0127.50,0120.01,0099.98,16.6,23.0,,00.0,0668.6,30.6
2021-10-05T03:21:00Z,00540200,01000000,0007.59,0004.74,0003.23,0001.64,0001.00,0000.97,0068.36,0064.24,0054.04,16.6,23.0,,00.0,0668.6,30.6
2021-10-05T03:22:00Z,00540200,01000000,0002.99,0001.77,0001.29,0000.84,0000.38,0000.39,0024.70,0023.18,0018.96,16.7,23.0,,00.0,0668.7,30.6
2021-10-05T03:23:00Z,00540200,01000000,0001.19,0000.52,0000.34,0000.07,0000.02,0000.22,0008.58,0008.44,0007.07,16.7,23.1,,00.0,0668.6,30.6
2021-10-05T03:24:00Z,00540200,01000000,0001.39,0001.31,0000.94,-000.14,0000.30,0000.18,0014.80,0013.85,0011.34,16.7,23.1,,00.0,0668.6,30.6
2021-10-05T03:25:00Z,00540200,01000000,0002.79,0002.18,0001.28,0000.42,0000.49,0000.42,0023.17,0021.90,0018.06,16.7,23.1,,00.0,0668.6,30.6
2021-10-05T03:26:00Z,00540200,01000000,0002.81,0001.84,0001.56,0000.71,0000.36,0000.48,0025.44,0023.56,0019.52,16.6,23.1,,00.0,0668.6,30.6
2021-10-05T03:27:00Z,00540200,01000000,0000.95,0001.14,0001.03,0000.62,0000.05,0000.44,0015.08,0014.37,0011.88,16.5,23.1,,00.0,0668.6,30.6
2021-10-05T03:28:00Z,00540200,01000000,0000.69,0000.13,0000.44,-000.15,0000.14,0000.16,0008.32,0007.62,0006.49,16.5,23.0,,00.0,0668.6,30.6
2021-10-05T03:29:00Z,00540200,01000000,0000.78,-000.08,0000.02,0000.24,0000.12,0000.08,0002.56,0002.39,0002.05,16.4,23.0,,00.0,0668.6,30.6
2021-10-05T03:30:00Z,00540200,01000000,0000.55,-000.10,0000.17,0000.42,-000.08,-000.02,0001.40,0001.23,0001.00,16.4,22.9,,00.0,0668.6,30.6
2021-10-05T03:31:00Z,00540200,01000000,0000.41,-000.12,0000.30,0000.03,-000.02,-000.08,0001.10,0000.82,0000.49,16.4,22.9,,00.0,0668.6,30.5
2021-10-05T03:32:00Z,00540200,01000000,0000.53,0000.31,0000.46,-000.07,0000.11,-000.08,0004.30,0004.56,0003.76,16.4,22.9,,00.0,0668.7,30.6
2021-10-05T03:33:00Z,00540200,01000000,0001.14,0000.98,0000.93,0000.21,0000.73,0000.21,0013.34,0012.08,0009.82,16.4,22.9,,00.0,0668.7,30.6
2021-10-05T03:34:00Z,00540200,01000000,0005.43,0003.09,0002.29,0000.87,0000.86,0000.78,0039.68,0037.58,0030.70,16.5,23.0,,00.0,0668.7,30.6
2021-10-05T03:35:00Z,00540200,01000000,0007.85,0005.84,0004.13,0001.67,0001.60,0001.30,0077.96,0072.93,0060.77,16.6,23.0,,00.0,0668.7,30.6
2021-10-05T03:36:00Z,00540200,01000000,0009.03,0006.94,0004.65,0001.74,0001.69,0001.34,0093.50,0087.78,0073.21,16.6,23.0,,00.0,0668.7,30.6
2021-10-05T03:37:00Z,00540200,01000000,0009.86,0006.98,0004.71,0002.24,0002.03,0001.33,0089.04,0083.26,0069.11,16.6,23.0,,00.0,0668.7,30.6
2021-10-05T03:38:00Z,00540200,01000000,0008.28,0006.18,0003.83,0002.35,0001.62,0000.97,0080.99,0076.09,0063.02,16.7,23.0,,00.0,0668.7,30.6
2021-10-05T03:39:00Z,00540200,01000000,0004.86,0003.25,0002.40,0001.71,0000.95,0000.79,0049.33,0046.39,0039.03,16.7,23.1,,00.0,0668.7,30.6
2021-10-05T03:40:00Z,00540200,01000000,0002.30,0002.20,0001.47,0000.68,0000.39,0000.38,0026.50,0025.16,0020.83,16.7,23.1,,00.0,0668.7,30.6
2021-10-05T03:41:00Z,00540200,01000000,0003.04,0002.43,0001.88,0000.62,0000.86,0000.65,0030.16,0028.70,0023.59,16.7,23.1,,00.0,0668.7,30.6
2021-10-05T03:42:00Z,00540200,01000000,0004.20,0002.60,0001.88,0000.91,0000.29,0000.35,0035.31,0032.77,0027.46,16.6,23.1,,00.0,0668.7,30.6
2021-10-05T03:43:00Z,00540200,01000000,0005.57,0003.75,0002.52,0000.82,0000.62,0000.75,0045.79,0043.16,0035.79,16.5,23.1,,00.0,0668.6,30.6
2021-10-05T03:44:00Z,00540200,01000000,0008.86,0006.62,0004.48,0001.93,0001.61,0001.19,0082.51,0077.38,0063.50,16.5,23.0,,00.0,0668.6,30.6
2021-10-05T03:45:00Z,00540200,01000000,0012.60,0008.59,0006.07,0003.12,0002.26,0001.71,0114.22,0107.42,0089.52,16.5,23.0,,00.0,0668.6,30.6
2021-10-05T03:46:00Z,00540200,01000000,0014.44,0010.34,0006.99,0002.66,0002.27,0002.24,0135.31,0126.54,0105.51,16.4,23.0,,00.0,0668.6,30.6
2021-10-05T03:47:00Z,00540200,01000000,0019.01,0013.50,0008.70,0003.95,0003.34,0002.56,0169.12,0159.47,0132.53,16.5,23.0,,00.0,0668.6,30.6
2021-10-05T03:48:00Z,00540200,01000000,0020.29,0015.17,0009.40,0003.72,0003.58,0002.58,0177.83,0167.17,0139.79,16.5,23.0,,00.0,0668.6,30.6
2021-10-05T03:49:00Z,00540200,01000000,0020.97,0014.64,0009.44,0004.22,0003.30,0002.91,0183.04,0172.37,0143.73,16.5,23.0,,00.0,0668.6,30.6
2021-10-05T03:50:00Z,00540200,01000000,0021.69,0015.39,0010.01,0004.50,0003.54,0002.65,0190.45,0179.16,0149.92,16.6,23.0,,00.0,0668.7,30.6
2021-10-05T03:51:00Z,00540200,01000000,0017.25,0012.22,0007.95,0003.77,0002.99,0002.46,0156.23,0147.05,0122.73,16.6,23.0,,00.0,0668.6,30.6
2021-10-05T03:52:00Z,00540200,01000000,0007.78,0006.25,0003.68,0001.73,0001.92,0001.23,0083.91,0079.41,0066.30,16.7,23.1,,00.0,0668.6,30.6
2021-10-05T03:53:00Z,00540200,01000000,-000.10,0000.28,0000.32,0000.27,0000.31,0000.02,0008.99,0008.50,0006.90,16.7,23.1,,00.0,0668.7,30.6
2021-10-05T03:54:00Z,00540200,01000000,0000.19,0000.16,0000.09,0000.06,-000.04,0000.19,0001.27,0001.42,0001.36,16.7,23.1,,00.0,0668.6,30.6
2021-10-05T03:55:00Z,00540200,01000000,0000.07,-000.04,0000.15,-000.20,-000.15,0000.15,0002.02,0001.55,0000.89,16.6,23.1,,00.0,0668.6,30.6
2021-10-05T03:56:00Z,00540200,01000000,-000.23,0000.67,0000.21,0000.44,-000.14,0000.41,0000.68,0000.94,0001.00,16.6,23.0,,00.0,0668.6,30.6
2021-10-05T03:57:00Z,00540200,41000000,,,,,,,0005.91,0004.91,0004.23,16.6,23.1,,00.0,0668.7,30.6
2021-10-05T03:58:00Z,00540200,61000000,,,,,,,0000.77,0001.30,0001.15,16.1,23.1,,00.0,0667.7,30.6
2021-10-05T03:59:00Z,00540200,21000000,,,,,,,0001.58,0001.09,0001.04,16.0,23.2,,00.0,0667.6,30.5
